Hearne, TX

10:36 AM CST on February 23, 2018 (GMT -0600)
Hearne

Weather History for KLHB - January, 2014

Change the Weather History Date:

Thursday, January 30, 2014

  Actual Average (KCLL) Record (KCLL)
Temperature  
Mean Temperature 46 °F -  
Max Temperature 62 °F 60 °F 86 °F (1911)
Min Temperature 29 °F 41 °F 12 °F (1949)
Degree Days  
Heating Degree Days 20    
Moisture  
Dew Point 36 °F    
Average Humidity 69    
Maximum Humidity 89    
Minimum Humidity 57    
Precipitation  
Precipitation 0.00 in - - ()
Sea Level Pressure  
Sea Level Pressure 30.07 in    
Wind  
Wind Speed 11 mph (SE)    
Max Wind Speed 21 mph    
Max Gust Speed 28 mph    
Visibility 10 miles    
Events      
Averages and records for this station are not official NWS values.
T = Trace of Precipitation, MM = Missing Value Source: NWS Daily Summary

Daily Weather History Graph

Daily Weather History Graph

Search for Another Location

Airport or City:

Trip Planner

Search our weather history database for the weather conditions in past years. The results will help you decide how hot, cold, wet, or windy it might be!

Date:

Astronomy

Jan. 30, 2014 Rise Set
Actual Time 7:19 AM CST 6:00 PM CST
Civil Twilight 6:53 AM CST 6:26 PM CST
Nautical Twilight 6:24 AM CST 6:55 PM CST
Astronomical Twilight 5:56 AM CST 7:23 PM CST
Moon 6:48 AM CST (1/30) 6:09 PM CST (1/30)
Length of Visible Light 11h 32m
Length of Day
10h 41m
Waning Crescent, 0% of the Moon is Illuminated
Jan 30
Waning Crescent
Jan 30
New
Feb 6
First Quarter
Feb 14
Full
Feb 22
Last Quarter

Hourly Weather History & Observations

Time (CST) Temp. Windchill Dew Point Humidity Pressure Visibility Wind Dir Wind Speed Gust Speed Precip Events Conditions
12:15 AM 31.1 °F 23.1 °F 19.4 °F 62% 30.28 in 10.0 mi SE 9.2 mph - N/A   Clear
12:35 AM 30.9 °F 22.8 °F 18.9 °F 61% 30.27 in 10.0 mi SE 9.2 mph - N/A   Clear
12:55 AM 30.4 °F 21.5 °F 19.0 °F 63% 30.26 in 10.0 mi SE 10.4 mph - N/A   Clear
1:15 AM 30.0 °F 21.7 °F 19.2 °F 64% 30.26 in 10.0 mi SE 9.2 mph - N/A   Clear
1:35 AM 29.5 °F 22.5 °F 19.4 °F 66% 30.26 in 10.0 mi SE 6.9 mph - N/A   Clear
1:55 AM 29.1 °F 21.3 °F 19.4 °F 67% 30.26 in 10.0 mi SE 8.1 mph - N/A   Clear
2:15 AM 29.1 °F 21.3 °F 19.2 °F 67% 30.24 in 10.0 mi SE 8.1 mph - N/A   Clear
2:35 AM 29.3 °F 20.8 °F 19.0 °F 66% 30.23 in 10.0 mi SE 9.2 mph - N/A   Clear
2:55 AM 29.3 °F 20.8 °F 18.5 °F 64% 30.21 in 10.0 mi SE 9.2 mph - N/A   Clear
3:15 AM 29.3 °F 20.8 °F 17.6 °F 62% 30.20 in 10.0 mi SE 9.2 mph - N/A   Clear
3:35 AM 29.3 °F 21.5 °F 17.8 °F 62% 30.21 in 10.0 mi SE 8.1 mph - N/A   Clear
3:55 AM 29.3 °F 21.5 °F 18.3 °F 64% 30.20 in 10.0 mi SE 8.1 mph - N/A   Clear
4:15 AM 29.3 °F 21.5 °F 18.9 °F 65% 30.19 in 10.0 mi SE 8.1 mph - N/A   Scattered Clouds
4:35 AM 30.2 °F 21.9 °F 19.9 °F 66% 30.18 in 10.0 mi SE 9.2 mph - N/A   Overcast
4:55 AM 31.5 °F 24.2 °F 21.2 °F 66% 30.18 in 10.0 mi SE 8.1 mph - N/A   Overcast
5:15 AM 32.0 °F 24.2 °F 22.5 °F 68% 30.17 in 10.0 mi SE 9.2 mph - N/A   Overcast
5:35 AM 32.5 °F 24.2 °F 22.6 °F 67% 30.16 in 10.0 mi SE 10.4 mph - N/A   Overcast
5:55 AM 33.1 °F 24.9 °F 23.0 °F 66% 30.16 in 10.0 mi SE 10.4 mph - N/A   Overcast
6:15 AM 34.0 °F 25.5 °F 23.9 °F 67% 30.15 in 10.0 mi SE 11.5 mph - N/A   Overcast
6:35 AM 34.7 °F 26.4 °F 24.6 °F 67% 30.15 in 10.0 mi SE 11.5 mph - N/A   Overcast
6:55 AM 34.7 °F 26.4 °F 25.3 °F 69% 30.15 in 10.0 mi SE 11.5 mph - N/A   Overcast
7:15 AM 35.4 °F 28.4 °F 25.7 °F 68% 30.15 in 10.0 mi SE 9.2 mph 16.1 mph N/A   Overcast
7:35 AM 35.8 °F 28.3 °F 26.2 °F 68% 30.14 in 10.0 mi SE 10.4 mph - N/A   Overcast
7:55 AM 36.5 °F 29.2 °F 26.6 °F 67% 30.16 in 10.0 mi SE 10.4 mph - N/A   Overcast
8:15 AM 36.7 °F 29.9 °F 27.1 °F 68% 30.15 in 10.0 mi SE 9.2 mph - N/A   Overcast
8:35 AM 37.4 °F 30.8 °F 27.9 °F 68% 30.14 in 10.0 mi SE 9.2 mph - N/A   Overcast
8:55 AM 38.5 °F 32.1 °F 28.9 °F 69% 30.15 in 10.0 mi SE 9.2 mph - N/A   Overcast
9:15 AM 39.6 °F 32.5 °F 29.3 °F 67% 30.14 in 10.0 mi SE 11.5 mph 17.3 mph N/A   Overcast
9:35 AM 40.1 °F 33.6 °F 30.0 °F 67% 30.14 in 10.0 mi SE 10.4 mph - N/A   Overcast
9:55 AM 41.0 °F 34.7 °F 30.9 °F 67% 30.14 in 10.0 mi SE 10.4 mph - N/A   Overcast
10:15 AM 42.1 °F 36.6 °F 31.8 °F 67% 30.14 in 10.0 mi SE 9.2 mph - N/A   Overcast
10:35 AM 43.5 °F 36.7 °F 32.0 °F 64% 30.13 in 10.0 mi SE 13.8 mph - N/A   Overcast
10:55 AM 45.0 °F 39.3 °F 33.1 °F 63% 30.13 in 10.0 mi SE 11.5 mph - N/A   Overcast
11:15 AM 46.4 °F 41.1 °F 34.3 °F 63% 30.12 in 10.0 mi SE 11.5 mph 16.1 mph N/A   Overcast
11:35 AM 47.8 °F - 36.0 °F 63% 30.11 in 10.0 mi SSE 15.0 mph 20.7 mph N/A   Overcast
11:55 AM 48.9 °F - 37.0 °F 64% 30.10 in 10.0 mi SSE 15.0 mph 23.0 mph N/A   Overcast
12:15 PM 50.2 °F - 38.1 °F 63% 30.08 in 10.0 mi SSE 15.0 mph 21.9 mph N/A   Overcast
12:35 PM 51.8 °F - 39.6 °F 63% 30.08 in 10.0 mi SSE 16.1 mph 21.9 mph N/A   Overcast
12:55 PM 52.7 °F - 40.5 °F 63% 30.07 in 10.0 mi SSE 11.5 mph - N/A   Overcast
1:15 PM 53.8 °F - 41.4 °F 63% 30.03 in 10.0 mi SSE 16.1 mph - N/A   Overcast
1:35 PM 54.7 °F - 42.6 °F 64% 30.02 in 10.0 mi SSE 16.1 mph 24.2 mph N/A   Overcast
1:55 PM 55.6 °F - 43.2 °F 63% 30.01 in 10.0 mi SSE 16.1 mph 23.0 mph N/A   Overcast
2:15 PM 56.5 °F - 43.9 °F 63% 30.00 in 10.0 mi SSE 17.3 mph 20.7 mph N/A   Overcast
2:35 PM 57.2 °F - 44.6 °F 63% 29.99 in 10.0 mi SSE 18.4 mph 21.9 mph N/A   Overcast
2:55 PM 58.5 °F - 45.3 °F 62% 29.98 in 10.0 mi SSE 20.7 mph 26.5 mph N/A   Overcast
3:15 PM 59.4 °F - 45.7 °F 61% 29.97 in 10.0 mi SSE 13.8 mph 25.3 mph N/A   Overcast
3:35 PM 59.9 °F - 46.0 °F 60% 29.97 in 10.0 mi SSE 13.8 mph 20.7 mph N/A   Overcast
3:55 PM 61.5 °F - 46.2 °F 57% 29.95 in 10.0 mi SSE 19.6 mph 27.6 mph N/A   Overcast
4:15 PM 61.2 °F - 46.6 °F 59% 29.94 in 10.0 mi SSE 17.3 mph 23.0 mph N/A   Mostly Cloudy
4:35 PM 62.1 °F - 47.3 °F 58% 29.93 in 10.0 mi SSE 16.1 mph - N/A   Mostly Cloudy
4:55 PM 60.3 °F - 47.3 °F 62% 29.93 in 10.0 mi SSE 17.3 mph 26.5 mph N/A   Scattered Clouds
5:15 PM 60.8 °F - 47.5 °F 62% 29.94 in 10.0 mi SSE 16.1 mph - N/A   Scattered Clouds
5:35 PM 60.4 °F - 48.0 °F 64% 29.94 in 10.0 mi SSE 15.0 mph 23.0 mph N/A   Scattered Clouds
5:55 PM 59.2 °F - 48.2 °F 67% 29.92 in 10.0 mi SE 13.8 mph 19.6 mph N/A   Scattered Clouds
6:15 PM 58.1 °F - 48.4 °F 70% 29.92 in 10.0 mi SSE 12.7 mph - N/A   Clear
6:35 PM 57.2 °F - 48.6 °F 73% 29.92 in 10.0 mi SSE 11.5 mph - N/A   Clear
6:55 PM 56.7 °F - 48.9 °F 75% 29.92 in 10.0 mi SSE 12.7 mph - N/A   Clear
7:15 PM 55.9 °F - 49.1 °F 78% 29.93 in 10.0 mi SE 9.2 mph - N/A   Clear
7:35 PM 54.9 °F - 48.7 °F 80% 29.93 in 10.0 mi SE 9.2 mph - N/A   Clear
7:55 PM 54.1 °F - 48.7 °F 82% 29.93 in 10.0 mi SE 9.2 mph - N/A   Clear
8:15 PM 53.6 °F - 48.6 °F 83% 29.93 in 10.0 mi SE 8.1 mph - N/A   Clear
8:35 PM 53.2 °F - 48.6 °F 84% 29.93 in 10.0 mi SE 8.1 mph - N/A   Clear
8:55 PM 52.9 °F - 48.7 °F 86% 29.93 in 10.0 mi SE 10.4 mph - N/A   Clear
9:15 PM 52.7 °F - 48.7 °F 86% 29.93 in 10.0 mi SE 9.2 mph - N/A   Clear
9:35 PM 52.2 °F - 48.6 °F 88% 29.93 in 10.0 mi SE 9.2 mph - N/A   Clear
9:55 PM 52.7 °F - 49.1 °F 88% 29.94 in 10.0 mi SE 9.2 mph - N/A   Mostly Cloudy
10:15 PM 52.9 °F - 49.3 °F 88% 29.94 in 10.0 mi SE 8.1 mph - N/A   Overcast
10:35 PM 52.9 °F - 49.3 °F 88% 29.94 in 10.0 mi SE 8.1 mph - N/A   Overcast
10:55 PM 52.9 °F - 49.5 °F 88% 29.93 in 10.0 mi ESE 9.2 mph - N/A   Overcast
11:15 PM 53.1 °F - 49.6 °F 88% 29.94 in 10.0 mi SE 6.9 mph - N/A   Overcast
11:35 PM 53.6 °F - 50.4 °F 89% 29.93 in 10.0 mi SE 10.4 mph - N/A   Overcast
11:55 PM 54.1 °F - 50.9 °F 89% 29.93 in 10.0 mi SE 8.1 mph - N/A   Overcast